Location: ???????????
(54.5822°N, 39.1075°E)
Time: 02:50:35
(UTC+00:00)

Cosmos 2082 Rocket - Pass Details

Date: 19 May 2025
Orbit: 832 x 853 km, 71.0° (Epoch: 14 June)

Event Time Altitude Azimuth Distance (km) Brightness Sun altitude
Exits shadow 18:18:31 - 136° (SE) 2,678 4.1 -6.0°
Reaches altitude 10° 18:19:38 10° 127° (SE) 2,441 4.0 -6.1°
Maximum altitude 18:22:25 14° 96° (E) 2,169 3.9 -6.4°
Drops below altitude 10° 18:25:12 10° 66° (ENE) 2,454 4.5 -6.6°
Sets 18:28:50 0° 43° (NE) 3,398 5.4 -7.0°
